Location: Norton
(51.3000°N, 0.8167°E)
Time: 13:01:18
(UTC+00:00)

Resurs 01 Rocket - Pass Details

Date: 03 March 2021
Orbit: 635 x 643 km, 98.0° (Epoch: 11 April)

Event Time Altitude Azimuth Distance (km) Brightness Sun altitude
Exits shadow 19:12:41 22° 70° (ENE) 1,413 2.9 -15.1°
Maximum altitude 19:13:09 22° 60° (ENE) 1,399 2.9 -15.1°
Drops below altitude 10° 19:16:32 10° 10° (N) 2,037 4.2 -15.7°
Sets 19:19:08 0° 356° (N) 2,951 5.2 -16.1°
